Starlink 36906

operational
NORAD ID: 68036 Int'l Des: 2026-040 Owner: SPXS Country: US Constellation: starlink
LEOCIRCULARRETROGRADE

Starlink 36906について

説明を読み込み中...

リアルタイム位置

3D地球を読み込み中...

次回通過

高度履歴

Altitude vs Time

uPlot chart will show altitude changes over time

軌道要素

1 68036C 26040X 26061.10743056 .00633480 00000+0 68415-3 0 616
2 68036 97.2856 8.4910 0010249 255.7330 226.2758 16.09209669 16
Epoch: Mar 2, 2026 • Age: 29 hours

現在のステータス

高度 265.3 km
速度 7.75 km/s
衛星直下点 -66.77°S, 156.28°E
打ち上げ日 Mar 1, 2026
運用期間 1 days
タイプ internet

技術仕様

分類 Payload
質量 575.00 kg
乾燥質量 530.00 kg
総質量 575.00 kg
長さ 0.30 m
直径 4.10 m
スパン 29.00 m
形状 Box + pan
製造者 SPXS
バスタイプ Starlink V2MO
フェーズステータス In Orbit
所有者/国 SPXS/US

大規模コンステレーション

Loading constellations...